Time,TemperatureF,DewpointF,PressureIn,WindDirection,WindDirectionDegrees,WindSpeedMPH,WindSpeedGustMPH,Humidity,HourlyPrecipIn,Conditions,Clouds,dailyrainin,SoftwareType,DateUTC
2013-05-31 00:09:00,78.0,67.0,29.96,SSE,168,2.0,-999.0,68,-99.99,,,0.01,weatherlink.com 1.10,2013-05-31 04:09:00,
2013-05-31 00:24:00,77.5,67.0,29.96,SSE,165,2.0,-999.0,69,-99.99,,,0.01,weatherlink.com 1.10,2013-05-31 04:24:00,
2013-05-31 00:39:00,77.0,67.0,29.96,SSE,165,2.0,-999.0,70,-99.99,,,0.01,weatherlink.com 1.10,2013-05-31 04:39:00,
2013-05-31 00:54:00,76.5,66.0,29.96,SSE,165,0.0,-999.0,71,-99.99,,,0.01,weatherlink.com 1.10,2013-05-31 04:54:00,
2013-05-31 01:09:00,76.2,67.0,29.96,SSE,161,1.0,-999.0,72,-99.99,,,0.01,weatherlink.com 1.10,2013-05-31 05:09:00,
2013-05-31 01:24:00,76.3,66.0,29.96,South,169,0.0,-999.0,71,-99.99,,,0.01,weatherlink.com 1.10,2013-05-31 05:24:00,
2013-05-31 01:39:00,76.4,66.0,29.96,SSE,164,4.0,-999.0,71,-99.99,,,0.01,weatherlink.com 1.10,2013-05-31 05:39:00,
2013-05-31 01:54:00,76.4,66.0,29.96,South,174,2.0,-999.0,71,-99.99,,,0.01,weatherlink.com 1.10,2013-05-31 05:54:00,
2013-05-31 02:09:00,76.1,66.0,29.97,SSW,209,0.0,-999.0,72,-99.99,,,0.01,weatherlink.com 1.10,2013-05-31 06:09:00,
2013-05-31 02:24:00,75.5,66.0,29.96,SSE,168,7.0,-999.0,73,-99.99,,,0.01,weatherlink.com 1.10,2013-05-31 06:24:00,
2013-05-31 02:39:00,75.4,66.0,29.95,South,173,0.0,-999.0,73,-99.99,,,0.01,weatherlink.com 1.10,2013-05-31 06:39:00,
2013-05-31 02:54:00,75.0,66.0,29.95,SSE,159,1.0,-999.0,73,-99.99,,,0.01,weatherlink.com 1.10,2013-05-31 06:54:00,
2013-05-31 03:09:00,74.7,66.0,29.95,SSE,168,6.0,-999.0,74,-99.99,,,0.01,weatherlink.com 1.10,2013-05-31 07:09:00,
2013-05-31 03:25:00,74.4,66.0,29.94,SSW,206,3.0,-999.0,75,-99.99,,,0.01,weatherlink.com 1.10,2013-05-31 07:25:00,
2013-05-31 03:40:00,73.9,66.0,29.94,South,190,1.0,-999.0,75,-99.99,,,0.01,weatherlink.com 1.10,2013-05-31 07:40:00,
2013-05-31 03:55:00,73.7,66.0,29.94,South,182,0.0,-999.0,76,-99.99,,,0.01,weatherlink.com 1.10,2013-05-31 07:55:00,
2013-05-31 04:10:00,73.5,66.0,29.93,South,173,0.0,-999.0,76,-99.99,,,0.01,weatherlink.com 1.10,2013-05-31 08:10:00,
2013-05-31 04:25:00,73.6,66.0,29.93,SSE,167,5.0,-999.0,76,-99.99,,,0.01,weatherlink.com 1.10,2013-05-31 08:25:00,
2013-05-31 04:40:00,73.6,66.0,29.93,SSW,197,4.0,-999.0,76,-99.99,,,0.01,weatherlink.com 1.10,2013-05-31 08:40:00,
2013-05-31 04:55:00,73.4,65.0,29.93,South,170,5.0,-999.0,76,-99.99,,,0.01,weatherlink.com 1.10,2013-05-31 08:55:00,
2013-05-31 05:10:00,73.1,65.0,29.93,South,186,3.0,-999.0,76,-99.99,,,0.01,weatherlink.com 1.10,2013-05-31 09:10:00,
2013-05-31 05:25:00,73.0,65.0,29.93,South,191,0.0,-999.0,76,-99.99,,,0.01,weatherlink.com 1.10,2013-05-31 09:25:00,
2013-05-31 05:40:00,72.8,65.0,29.93,SSE,168,1.0,-999.0,77,-99.99,,,0.01,weatherlink.com 1.10,2013-05-31 09:40:00,
2013-05-31 05:55:00,72.7,65.0,29.93,South,175,4.0,-999.0,77,-99.99,,,0.01,weatherlink.com 1.10,2013-05-31 09:55:00,
2013-05-31 06:10:00,72.6,65.0,29.93,SSE,154,2.0,-999.0,77,-99.99,,,0.00,weatherlink.com 1.10,2013-05-31 10:10:00,
2013-05-31 06:25:00,72.4,65.0,29.93,SSE,161,4.0,-999.0,78,-99.99,,,0.00,weatherlink.com 1.10,2013-05-31 10:25:00,
2013-05-31 06:41:00,72.6,65.0,29.93,SSE,165,6.0,-999.0,78,-99.99,,,0.00,weatherlink.com 1.10,2013-05-31 10:41:00,
2013-05-31 06:56:00,72.9,66.0,29.94,South,174,6.0,-999.0,78,-99.99,,,0.00,weatherlink.com 1.10,2013-05-31 10:56:00,
2013-05-31 07:11:00,73.6,66.0,29.94,SSE,166,5.0,-999.0,76,-99.99,,,0.00,weatherlink.com 1.10,2013-05-31 11:11:00,
2013-05-31 07:26:00,74.4,66.0,29.94,SSW,207,2.0,-999.0,75,-99.99,,,0.00,weatherlink.com 1.10,2013-05-31 11:26:00,
2013-05-31 07:41:00,75.3,66.0,29.94,South,188,5.0,-999.0,73,-99.99,,,0.00,weatherlink.com 1.10,2013-05-31 11:41:00,
2013-05-31 07:56:00,76.0,66.0,29.94,SSE,153,11.0,-999.0,72,-99.99,,,0.00,weatherlink.com 1.10,2013-05-31 11:56:00,
2013-05-31 08:11:00,76.7,67.0,29.93,SSE,157,10.0,-999.0,71,-99.99,,,0.00,weatherlink.com 1.10,2013-05-31 12:11:00,
2013-05-31 08:26:00,76.9,66.0,29.94,SW,222,12.0,-999.0,70,-99.99,,,0.00,weatherlink.com 1.10,2013-05-31 12:26:00,
2013-05-31 08:41:00,76.9,66.0,29.93,SSW,209,6.0,-999.0,70,-99.99,,,0.00,weatherlink.com 1.10,2013-05-31 12:41:00,
2013-05-31 08:56:00,77.5,67.0,29.94,SW,220,11.0,-999.0,69,-99.99,,,0.00,weatherlink.com 1.10,2013-05-31 12:56:00,
2013-05-31 09:12:00,77.4,66.0,29.94,SW,215,13.0,-999.0,69,-99.99,,,0.00,weatherlink.com 1.10,2013-05-31 13:12:00,
2013-05-31 09:27:00,77.2,66.0,29.94,South,183,11.0,-999.0,69,-99.99,,,0.00,weatherlink.com 1.10,2013-05-31 13:27:00,
2013-05-31 09:42:00,77.6,67.0,29.94,SSW,195,7.0,-999.0,69,-99.99,,,0.00,weatherlink.com 1.10,2013-05-31 13:42:00,
2013-05-31 09:57:00,78.2,67.0,29.94,SW,217,11.0,-999.0,68,-99.99,,,0.00,weatherlink.com 1.10,2013-05-31 13:57:00,
2013-05-31 10:12:00,78.0,67.0,29.94,SSW,205,15.0,-999.0,68,-99.99,,,0.00,weatherlink.com 1.10,2013-05-31 14:12:00,
2013-05-31 10:27:00,78.3,67.0,29.93,SSW,213,5.0,-999.0,68,-99.99,,,0.00,weatherlink.com 1.10,2013-05-31 14:27:00,
2013-05-31 10:42:00,77.9,67.0,29.93,SW,219,7.0,-999.0,68,-99.99,,,0.00,weatherlink.com 1.10,2013-05-31 14:42:00,
2013-05-31 10:57:00,78.8,67.0,29.93,SSW,194,4.0,-999.0,68,-99.99,,,0.00,weatherlink.com 1.10,2013-05-31 14:57:00,
2013-05-31 11:12:00,78.9,67.0,29.93,South,188,5.0,-999.0,67,-99.99,,,0.00,weatherlink.com 1.10,2013-05-31 15:12:00,
2013-05-31 11:27:00,80.0,67.0,29.92,SW,214,8.0,-999.0,65,-99.99,,,0.00,weatherlink.com 1.10,2013-05-31 15:27:00,
2013-05-31 11:42:00,80.8,67.0,29.92,SW,234,18.0,-999.0,63,-99.99,,,0.00,weatherlink.com 1.10,2013-05-31 15:42:00,
2013-05-31 11:58:00,81.4,67.0,29.93,SSW,213,13.0,-999.0,62,-99.99,,,0.00,weatherlink.com 1.10,2013-05-31 15:58:00,
2013-05-31 12:13:00,80.4,67.0,29.92,WSW,241,10.0,-999.0,63,-99.99,,,0.00,weatherlink.com 1.10,2013-05-31 16:13:00,
2013-05-31 12:28:00,79.5,66.0,29.92,SW,227,10.0,-999.0,63,-99.99,,,0.00,weatherlink.com 1.10,2013-05-31 16:28:00,
2013-05-31 12:43:00,79.1,66.0,29.93,SW,215,10.0,-999.0,64,-99.99,,,0.00,weatherlink.com 1.10,2013-05-31 16:43:00,
2013-05-31 12:58:00,78.1,66.0,29.93,SW,228,14.0,-999.0,66,-99.99,,,0.00,weatherlink.com 1.10,2013-05-31 16:58:00,
2013-05-31 13:13:00,76.7,66.0,29.93,WSW,242,19.0,-999.0,69,-99.99,,,0.00,weatherlink.com 1.10,2013-05-31 17:13:00,
2013-05-31 13:28:00,75.2,66.0,29.93,WSW,242,11.0,-999.0,74,-99.99,,,0.00,weatherlink.com 1.10,2013-05-31 17:28:00,
2013-05-31 13:43:00,74.4,68.0,29.94,SW,224,10.0,-999.0,79,-99.99,,,0.00,weatherlink.com 1.10,2013-05-31 17:43:00,
2013-05-31 13:58:00,74.8,67.0,29.93,SW,220,7.0,-999.0,76,-99.99,,,0.00,weatherlink.com 1.10,2013-05-31 17:58:00,
2013-05-31 14:13:00,75.7,66.0,29.94,West,261,13.0,-999.0,73,-99.99,,,0.00,weatherlink.com 1.10,2013-05-31 18:13:00,
2013-05-31 14:28:00,75.3,68.0,29.94,SW,223,6.0,-999.0,77,-99.99,,,0.00,weatherlink.com 1.10,2013-05-31 18:28:00,
2013-05-31 14:43:00,74.6,69.0,29.92,SW,219,12.0,-999.0,82,-99.99,,,0.00,weatherlink.com 1.10,2013-05-31 18:43:00,
2013-05-31 14:58:00,74.7,70.0,29.92,SW,221,0.0,-999.0,84,-99.99,,,0.00,weatherlink.com 1.10,2013-05-31 18:58:00,
2013-05-31 15:14:00,74.1,69.0,29.91,SW,232,11.0,-999.0,85,-99.99,,,0.01,weatherlink.com 1.10,2013-05-31 19:14:00,
2013-05-31 15:29:00,73.5,69.0,29.92,SW,227,10.0,-999.0,85,-99.99,,,0.02,weatherlink.com 1.10,2013-05-31 19:29:00,
2013-05-31 15:44:00,70.8,68.0,29.92,SSW,209,7.0,-999.0,90,-99.99,,,0.18,weatherlink.com 1.10,2013-05-31 19:44:00,
2013-05-31 15:59:00,70.3,68.0,29.90,SW,217,3.0,-999.0,92,-99.99,,,0.24,weatherlink.com 1.10,2013-05-31 19:59:00,
2013-05-31 16:14:00,71.5,69.0,29.89,WSW,249,4.0,-999.0,91,-99.99,,,0.24,weatherlink.com 1.10,2013-05-31 20:14:00,
2013-05-31 16:29:00,72.4,69.0,29.88,SW,221,4.0,-999.0,88,-99.99,,,0.24,weatherlink.com 1.10,2013-05-31 20:29:00,
2013-05-31 16:44:00,73.1,69.0,29.88,SW,214,2.0,-999.0,88,-99.99,,,0.24,weatherlink.com 1.10,2013-05-31 20:44:00,
2013-05-31 16:59:00,73.6,70.0,29.88,WSW,241,5.0,-999.0,87,-99.99,,,0.24,weatherlink.com 1.10,2013-05-31 20:59:00,
2013-05-31 17:14:00,73.5,70.0,29.88,SSE,163,7.0,-999.0,88,-99.99,,,0.24,weatherlink.com 1.10,2013-05-31 21:14:00,
2013-05-31 17:29:00,73.1,69.0,29.87,SSE,158,7.0,-999.0,88,-99.99,,,0.24,weatherlink.com 1.10,2013-05-31 21:29:00,
2013-05-31 17:45:00,73.2,69.0,29.86,SSE,157,8.0,-999.0,87,-99.99,,,0.24,weatherlink.com 1.10,2013-05-31 21:45:00,
2013-05-31 18:00:00,73.6,69.0,29.87,South,183,2.0,-999.0,86,-99.99,,,0.24,weatherlink.com 1.10,2013-05-31 22:00:00,
2013-05-31 18:15:00,73.7,69.0,29.87,SSW,207,8.0,-999.0,85,-99.99,,,0.24,weatherlink.com 1.10,2013-05-31 22:15:00,
2013-05-31 18:30:00,73.7,69.0,29.87,South,174,5.0,-999.0,86,-99.99,,,0.24,weatherlink.com 1.10,2013-05-31 22:30:00,
2013-05-31 18:45:00,74.1,69.0,29.87,SSE,165,5.0,-999.0,85,-99.99,,,0.24,weatherlink.com 1.10,2013-05-31 22:45:00,
2013-05-31 19:00:00,74.8,70.0,29.86,SSW,206,6.0,-999.0,84,-99.99,,,0.24,weatherlink.com 1.10,2013-05-31 23:00:00,
2013-05-31 19:15:00,75.4,70.0,29.86,South,189,3.0,-999.0,84,-99.99,,,0.24,weatherlink.com 1.10,2013-05-31 23:15:00,
2013-05-31 19:30:00,75.5,70.0,29.85,SSE,155,6.0,-999.0,83,-99.99,,,0.24,weatherlink.com 1.10,2013-05-31 23:30:00,
2013-05-31 19:45:00,74.9,70.0,29.85,SSE,167,1.0,-999.0,84,-99.99,,,0.24,weatherlink.com 1.10,2013-05-31 23:45:00,
2013-05-31 20:00:00,74.2,70.0,29.86,SSE,150,2.0,-999.0,85,-99.99,,,0.24,weatherlink.com 1.10,2013-06-01 00:00:00,
2013-05-31 20:15:00,73.6,69.0,29.86,SSE,168,8.0,-999.0,86,-99.99,,,0.24,weatherlink.com 1.10,2013-06-01 00:15:00,
2013-05-31 20:30:00,73.2,69.0,29.86,SSE,167,6.0,-999.0,86,-99.99,,,0.24,weatherlink.com 1.10,2013-06-01 00:30:00,
2013-05-31 20:45:00,72.8,69.0,29.86,SSE,168,9.0,-999.0,87,-99.99,,,0.24,weatherlink.com 1.10,2013-06-01 00:45:00,
2013-05-31 21:00:00,72.5,69.0,29.86,South,169,6.0,-999.0,88,-99.99,,,0.24,weatherlink.com 1.10,2013-06-01 01:00:00,
2013-05-31 21:16:00,72.2,69.0,29.86,SSE,166,5.0,-999.0,88,-99.99,,,0.24,weatherlink.com 1.10,2013-06-01 01:16:00,
2013-05-31 21:31:00,72.0,68.0,29.85,South,173,5.0,-999.0,88,-99.99,,,0.24,weatherlink.com 1.10,2013-06-01 01:31:00,
2013-05-31 21:46:00,71.7,68.0,29.86,SSW,209,5.0,-999.0,88,-99.99,,,0.24,weatherlink.com 1.10,2013-06-01 01:46:00,
2013-05-31 22:01:00,71.3,68.0,29.87,SSW,209,3.0,-999.0,88,-99.99,,,0.24,weatherlink.com 1.10,2013-06-01 02:01:00,
2013-05-31 22:16:00,71.0,67.0,29.88,South,175,2.0,-999.0,88,-99.99,,,0.24,weatherlink.com 1.10,2013-06-01 02:16:00,
2013-05-31 22:31:00,70.7,67.0,29.88,SSW,211,1.0,-999.0,88,-99.99,,,0.24,weatherlink.com 1.10,2013-06-01 02:31:00,
2013-05-31 22:46:00,70.3,67.0,29.88,SSW,211,2.0,-999.0,89,-99.99,,,0.24,weatherlink.com 1.10,2013-06-01 02:46:00,
2013-05-31 23:01:00,70.1,67.0,29.88,South,176,6.0,-999.0,90,-99.99,,,0.24,weatherlink.com 1.10,2013-06-01 03:01:00,
2013-05-31 23:16:00,70.0,67.0,29.88,SSE,167,4.0,-999.0,90,-99.99,,,0.24,weatherlink.com 1.10,2013-06-01 03:16:00,
2013-05-31 23:31:00,70.0,67.0,29.88,South,180,4.0,-999.0,90,-99.99,,,0.24,weatherlink.com 1.10,2013-06-01 03:31:00,
2013-05-31 23:46:00,70.1,67.0,29.89,SW,219,7.0,-999.0,90,-99.99,,,0.24,weatherlink.com 1.10,2013-06-01 03:46:00,